Guild, Tennessee
Current Conditions -  °F | °C
As of 6:53 PM on Sunday 21 Dec 2014 (Local Time) from KCHA Reporting Station
Overcast Overcast  
Wind Chill: 47°   Ceiling: 2000
Heat Index: 47°   Visibility: 10mi
Dew Point: 38°   Wind: 3mph
Humidity: 71%   Direction: 360°N
Pressure: 30.11"   Gusts: NA
Location:  35.04°N, 85.53°W
Report Text: KCHA 220053Z 36003KT 10SM BKN020 OVC030 08/03 A3011 RMK AO2 SLP197 T00830033 $
Loading
Personal Weather Stations






























Interactive Weather Map New forecast layout! Learn more

10-Day Weather Forecast

Advertisements
Track Severe Weather on mobile